Flag for Germany Weather past 2 weeks in Güstrow, Mecklenburg-Western Pomerania, Germany

Now
59 °F

Scattered showers. Scattered clouds.


Feels Like: 56 °F
Forecast: 48 / 65 °F
Wind: 18 mph from Northwest

Location: Laage

Current Time: Aug 23, 2014 at 5:28:17 PM

Latest Report: Aug 23, 2014 at 4:20 PM


Visibility: N/A

Pressure: 29.83 "Hg

Humidity: 68%

Dew point: 48 °F

Location of GüstrowLocation

Historic Weather in Güstrow — Graph

°F

Güstrow temperature yesterday

Maximum temperature yesterday: 68 °F (at 2:20 PM)
Minimum temperature yesterday: 50 °F (at 1:20 AM)
Average temperature yesterday: 58 °F

Past Weeks' High & Low Weather Summary

 TemperatureHumidityPressure
High75 °F (Aug 8, 4:20 PM)100% (Aug 14, 12:20 AM)29.98 "Hg (Aug 14, 12:20 AM)
Low46 °F (Aug 21, 5:20 AM)41% (Aug 11, 4:59 PM)29.47 "Hg (Aug 18, 2:20 PM)
Average61 °F74%29.78 "Hg
* Reported Aug 8 4:20 PM — Aug 23 4:20 PM, Güstrow, Weather by CustomWeather, © 2014

Note: Actual official high and low records may vary slightly from our data, if they occured in-between our weather recording intervals... More about our weather records

Advertising

Güstrow weather history for previous 24 hours

 ConditionsComfort  
Time TempWeatherWind HumidityBarometerVisibility
4:20 PM
Aug 23
59 °FScattered showers. Scattered clouds.18 mph68%29.83 "HgN/A
3:20 PM61 °FSprinkles. Partly sunny.6 mph68%29.83 "HgN/A
2:20 PM64 °FScattered showers. Scattered clouds.12 mph49%29.83 "HgN/A
1:20 PM63 °FScattered showers. Scattered clouds.13 mph56%29.83 "HgN/A
12:20 PM61 °FScattered clouds.15 mph59%29.83 "HgN/A
11:20 AM59 °FScattered clouds.12 mph68%29.83 "HgN/A
10:20 AM57 °FScattered clouds.12 mph72%29.83 "HgN/A
9:20 AM55 °FPartly sunny.12 mph77%29.83 "HgN/A
8:20 AM54 °FPartly sunny.7 mph82%29.83 "HgN/A
7:20 AM52 °FPartly sunny.9 mph88%29.80 "HgN/A
6:20 AM52 °FPassing clouds.9 mph88%29.80 "HgN/A
5:20 AM52 °FPassing clouds.10 mph88%29.80 "HgN/A
5:04 AM52 °FPassing clouds.13 mph88%29.80 "HgN/A
4:20 AM52 °FPassing clouds.12 mph88%29.80 "HgN/A
3:20 AM54 °FPassing clouds.8 mph88%29.80 "HgN/A
2:20 AM54 °FPassing clouds.10 mph88%29.80 "HgN/A
1:20 AM55 °FPassing clouds.10 mph82%29.80 "HgN/A
12:20 AM55 °FPassing clouds.8 mph88%29.80 "HgN/A
11:20 PM
Aug 22
57 °FPassing clouds.9 mph77%29.80 "HgN/A
10:20 PM57 °FPassing clouds.7 mph82%29.80 "HgN/A
9:20 PM57 °FLight rain. Partly sunny.10 mph82%29.80 "HgN/A
8:20 PM63 °FBroken clouds.7 mph56%29.80 "HgN/A
7:20 PM63 °FBroken clouds.7 mph52%29.80 "HgN/A
6:20 PM64 °FPartly sunny.13 mph49%29.80 "HgN/A
5:20 PM66 °FBroken clouds.14 mph46%29.80 "HgN/A
Weather by CustomWeather, © 2014

See weather overviewHow to use our weather pages